Tri-Cities, TN

9:42 PM EST on December 08, 2019 (GMT -0500)
Tri-Cities Regional Tennessee / Virginia

Weather History for KTRI - October, 2019

Change the Weather History Date:

Sunday, October 6, 2019

  Actual Average Record
Temperature  
Mean Temperature 72 °F 59 °F  
Max Temperature 82 °F 72 °F 91 °F (1941)
Min Temperature 62 °F 47 °F 34 °F (1988)
Degree Days  
Heating Degree Days 0 6  
Month to date heating degree days 0 33  
Since 1 July heating degree days 0 86  
Cooling Degree Days 7 1  
Month to date cooling degree days 60 6  
Year to date cooling degree days 1445 974  
Growing Degree Days 22 (Base 50)    
Moisture  
Dew Point 60 °F    
Average Humidity 74    
Maximum Humidity 93    
Minimum Humidity 54    
Precipitation  
Precipitation 0.45 in 0.07 in 1.65 in (1959)
Month to date precipitation 0.45 0.41  
Year to date precipitation 42.06 32.85  
Snow  
Snow 0.00 in 0.00 in - ()
Month to date snowfall 0.0 0.0  
Since 1 July snowfall 0.0 0.0  
Since 1 September snowfall 0.0 0.0  
Snow Depth 0.00 in    
Sea Level Pressure  
Sea Level Pressure 30.14 in    
Wind  
Wind Speed 3 mph (SE)    
Max Wind Speed 13 mph    
Max Gust Speed 15 mph    
Visibility 9 miles    
Events Rain    
T = Trace of Precipitation, MM = Missing Value Source: NWS Daily Summary

Daily Weather History Graph

Daily Weather History Graph

Search for Another Location

Airport or City:

Astronomy

Oct. 06, 2019 Rise Set
Actual Time 7:28 AM EDT 7:06 PM EDT
Civil Twilight 7:03 AM EDT 7:31 PM EDT
Nautical Twilight 6:33 AM EDT 8:01 PM EDT
Astronomical Twilight 6:03 AM EDT 8:31 PM EDT
Moon 3:31 PM EDT (10/6) 12:38 AM EDT (10/6)
Length of Visible Light 12h 28m
Length of Day
11h 37m
First Quarter, 59% of the Moon is Illuminated
Oct 6
First Quarter
Oct 13
Full
Oct 21
Last Quarter
Oct 27
New
Nov 4
First Quarter

Hourly Weather History & Observations

Time (EDT) Temp. Heat Index Dew Point Humidity Pressure Visibility Wind Dir Wind Speed Gust Speed Precip Events Conditions
12:53 AM 64.9 °F - 54.0 °F 68% 30.12 in 10.0 mi Variable 4.6 mph - N/A   Mostly Cloudy
1:53 AM 64.9 °F - 54.0 °F 68% 30.12 in 10.0 mi SE 5.8 mph - N/A   Mostly Cloudy
2:53 AM 64.0 °F - 54.0 °F 70% 30.14 in 10.0 mi South 3.5 mph - N/A   Mostly Cloudy
3:53 AM 63.0 °F - 54.0 °F 72% 30.14 in 10.0 mi SSE 4.6 mph - N/A   Overcast
4:53 AM 63.0 °F - 55.0 °F 75% 30.13 in 10.0 mi Calm Calm - N/A   Mostly Cloudy
5:53 AM 64.0 °F - 55.0 °F 73% 30.13 in 10.0 mi ESE 4.6 mph - N/A   Mostly Cloudy
6:53 AM 64.0 °F - 55.9 °F 75% 30.15 in 10.0 mi Calm Calm - N/A   Mostly Cloudy
7:53 AM 63.0 °F - 55.9 °F 78% 30.16 in 10.0 mi Calm Calm - N/A   Mostly Cloudy
8:53 AM 64.9 °F - 57.0 °F 75% 30.18 in 10.0 mi Calm Calm - N/A   Mostly Cloudy
9:53 AM 66.0 °F - 57.9 °F 75% 30.18 in 10.0 mi Calm Calm - N/A   Overcast
10:53 AM 71.1 °F - 57.9 °F 63% 30.18 in 10.0 mi East 3.5 mph - N/A   Overcast
11:53 AM 73.9 °F - 60.1 °F 62% 30.18 in 10.0 mi SE 3.5 mph - N/A   Overcast
12:53 PM 77.0 °F - 60.1 °F 56% 30.17 in 10.0 mi Calm Calm - N/A   Overcast
1:53 PM 79.0 °F - 61.0 °F 54% 30.15 in 10.0 mi SSW 6.9 mph - N/A   Overcast
2:53 PM 78.1 °F - 61.0 °F 56% 30.13 in 10.0 mi ESE 5.8 mph - N/A   Overcast
3:53 PM 81.0 °F 81.9 °F 62.1 °F 52% 30.11 in 10.0 mi Variable 3.5 mph - N/A   Mostly Cloudy
4:53 PM 79.0 °F - 61.0 °F 54% 30.10 in 10.0 mi NW 8.1 mph - N/A   Mostly Cloudy
5:53 PM 75.0 °F - 64.0 °F 69% 30.10 in 10.0 mi West 3.5 mph - 0.02 in   Overcast
6:14 PM 71.1 °F - 64.9 °F 81% 30.18 in 1.2 mi WSW 11.5 mph - 0.01 in Rain Heavy Rain
6:42 PM 69.1 °F - 66.0 °F 90% 30.18 in 3.0 mi Calm Calm - 0.38 in Rain Light Rain
6:53 PM 68.0 °F - 66.0 °F 93% 30.12 in 10.0 mi NNE 3.5 mph - 0.39 in Rain Light Rain
7:53 PM 68.0 °F - 66.0 °F 93% 30.13 in 10.0 mi Calm Calm - 0.00 in   Overcast
8:53 PM 68.0 °F - 66.0 °F 93% 30.14 in 10.0 mi Calm Calm - 0.04 in   Overcast
9:53 PM 68.0 °F - 66.0 °F 93% 30.14 in 6.0 mi East 3.5 mph - N/A   Overcast
10:53 PM 66.9 °F - 64.9 °F 93% 30.13 in 10.0 mi North 3.5 mph - N/A   Overcast
11:53 PM 66.9 °F - 64.9 °F 93% 30.12 in 10.0 mi Calm Calm - N/A   Overcast